This is the latest recevied weather packets stored in our database for station/object WR9A-13. If no packets are shown the sender has not sent any weather packets the latest 10 day(s).
| Time | Temp. | Humidity | Pressure | Rain* | Wind** | Luminosity | Snow |
|---|---|---|---|---|---|---|---|
| 1788023720 | 28.89° C | 55% | 1022.6 hPa | 0 mm | - | - | - |
| 1788023417 | 28.89° C | 57% | 1022.6 hPa | 0 mm | - | - | - |
| 1788023126 | 28.33° C | 59% | 1022.7 hPa | 0 mm | - | - | - |
| 1788022817 | 28.33° C | 58% | 1022.7 hPa | 0 mm | - | - | - |
| 1788022534 | 28.33° C | 56% | 1022.7 hPa | 0 mm | - | - | - |
| 1788022222 | 27.78° C | 59% | 1022.8 hPa | 0 mm | - | - | - |
| 1788021938 | 27.78° C | 58% | 1022.7 hPa | 0 mm | - | - | - |
| 1788021625 | 27.78° C | 58% | 1022.9 hPa | 0 mm | - | - | - |
| 1788021322 | 27.78° C | 57% | 1022.8 hPa | 0 mm | - | - | - |
| 1788021029 | 27.78° C | 60% | 1022.9 hPa | 0 mm | - | - | - |
| 1788020725 | 27.22° C | 59% | 1023.1 hPa | 0 mm | - | - | - |
| 1788020433 | 27.22° C | 62% | 1023.1 hPa | 0 mm | - | - | - |
| 1788020130 | 27.22° C | 60% | 1023.1 hPa | 0 mm | - | - | - |
| 1788019818 | 27.22° C | 64% | 1023.1 hPa | 0 mm | - | - | - |
| 1788019535 | 26.67° C | 63% | 1023.1 hPa | 0 mm | - | - | - |
| 1788019216 | 26.67° C | 65% | 1023.1 hPa | 0 mm | - | - | - |
| 1788018932 | 26.67° C | 66% | 1023 hPa | 0 mm | - | - | - |
| 1788018619 | 26.67° C | 65% | 1023.1 hPa | 0 mm | - | - | - |
| 1788018316 | 27.22° C | 65% | 1023 hPa | 0 mm | - | - | - |
| 1788018030 | 27.22° C | 67% | 1023 hPa | 0 mm | - | - | - |
| 1788017718 | 26.67° C | 66% | 1023.1 hPa | 0 mm | - | - | - |
| 1788017435 | 26.67° C | 68% | 1023.1 hPa | 0 mm | - | - | - |
| 1788017122 | 26.11° C | 67% | 1023.1 hPa | 0 mm | - | - | - |
| 1788016839 | 26.11° C | 65% | 1023.1 hPa | 0 mm | - | - | - |
| 1788016527 | 26.11° C | 68% | 1023 hPa | 0 mm | - | - | - |
* Rain latest hour (hover to see other rain measurements)
** Current wind speed in m/s (hover to see current wind gust speed)